CFG442 EDDF-VTSP

Flight info

Callsign CFG442
Flight time N/A
Altitude 31000
Route SULUS6F/25C SULUS Z650 VEMUT/N0472F330 DCT DITIS DCT TOVKA/N0472F350 DCT BUDOP DCT IRLOX DCT OPT DCT LUGEB DCT UDROS DCT CRM UM11 REBLO P130 DOGAM/N0472F370 P130 MAMED B449 RANAH L750 MERUN L333 KKJ L759 IBUDA/N0472F390 L759 SATVA SATVA1C
Aircraft A339/H-SADE1E2E3GHIJ3J5M1P2RWXY/LB2D1

Departure

Time 2026-04-17 13:39
Airport Frankfurt Main Airport (EDDF)

Arrival

Time N/A
Airport Phuket International Airport (VTSP)
Time Latitude Longitude Altitude Speed Heading
2026-04-17 13:02 50.04756 8.57464 362 ft 0 kts 46°
2026-04-17 13:24 50.04747 8.57448 362 ft 4 kts 40°
2026-04-17 13:24 50.04726 8.57424 369 ft 4 kts 21°
2026-04-17 13:25 50.04702 8.57411 363 ft 4 kts
2026-04-17 13:25 50.04677 8.57412 362 ft 4 kts 340°
2026-04-17 13:25 50.04654 8.57427 364 ft 4 kts 315°
2026-04-17 13:25 50.04635 8.57456 362 ft 4 kts 323°
2026-04-17 13:26 50.04614 8.57480 366 ft 4 kts 334°
2026-04-17 13:26 50.04589 8.57497 364 ft 4 kts 337°
2026-04-17 13:26 50.04564 8.57513 369 ft 4 kts 338°
2026-04-17 13:26 50.04539 8.57529 369 ft 4 kts 336°
2026-04-17 13:27 50.04534 8.57532 368 ft 0 kts 336°
2026-04-17 13:29 50.04536 8.57531 368 ft 1 kts 336°
2026-04-17 13:29 50.04553 8.57520 366 ft 4 kts 337°
2026-04-17 13:30 50.04586 8.57497 364 ft 6 kts 333°
2026-04-17 13:30 50.04590 8.57434 366 ft 6 kts 258°
2026-04-17 13:30 50.04580 8.57366 367 ft 7 kts 255°
2026-04-17 13:30 50.04564 8.57299 364 ft 7 kts 249°
2026-04-17 13:31 50.04547 8.57231 367 ft 7 kts 249°
2026-04-17 13:31 50.04528 8.57151 366 ft 9 kts 249°
2026-04-17 13:31 50.04502 8.57043 367 ft 12 kts 249°
2026-04-17 13:31 50.04471 8.56916 369 ft 12 kts 249°
2026-04-17 13:32 50.04442 8.56792 370 ft 12 kts 250°
2026-04-17 13:32 50.04408 8.56649 368 ft 16 kts 250°
2026-04-17 13:32 50.04366 8.56475 365 ft 18 kts 250°
2026-04-17 13:32 50.04319 8.56277 365 ft 21 kts 250°
2026-04-17 13:33 50.04270 8.56065 364 ft 21 kts 250°
2026-04-17 13:33 50.04220 8.55859 363 ft 20 kts 249°
2026-04-17 13:33 50.04171 8.55656 362 ft 20 kts 250°
2026-04-17 13:33 50.04124 8.55458 363 ft 19 kts 249°
2026-04-17 13:34 50.04078 8.55269 364 ft 18 kts 250°
2026-04-17 13:34 50.04037 8.55096 365 ft 17 kts 250°
2026-04-17 13:34 50.03998 8.54928 362 ft 17 kts 250°
2026-04-17 13:34 50.03956 8.54755 363 ft 17 kts 249°
2026-04-17 13:35 50.03913 8.54577 356 ft 18 kts 249°
2026-04-17 13:35 50.03868 8.54393 358 ft 18 kts 249°
2026-04-17 13:35 50.03803 8.54234 357 ft 17 kts 246°
2026-04-17 13:35 50.03758 8.54063 358 ft 17 kts 249°
2026-04-17 13:36 50.03716 8.53892 354 ft 17 kts 250°
2026-04-17 13:36 50.03678 8.53719 356 ft 17 kts 250°
2026-04-17 13:36 50.03635 8.53550 354 ft 17 kts 249°
2026-04-17 13:36 50.03593 8.53382 351 ft 17 kts 249°
2026-04-17 13:37 50.03553 8.53211 346 ft 17 kts 250°
2026-04-17 13:37 50.03512 8.53039 351 ft 17 kts 250°
2026-04-17 13:37 50.03469 8.52869 351 ft 17 kts 247°
2026-04-17 13:37 50.03428 8.52705 353 ft 7 kts 250°
2026-04-17 13:38 50.03415 8.52650 339 ft 6 kts 249°
2026-04-17 13:38 50.03389 8.52606 339 ft 5 kts 219°
2026-04-17 13:38 50.03343 8.52595 340 ft 14 kts 179°
2026-04-17 13:38 50.03044 8.52600 336 ft 79 kts 178°
2026-04-17 13:39 50.02280 8.52607 338 ft 142 kts 180°
2026-04-17 13:39 50.01115 8.52618 351 ft 191 kts 180°
2026-04-17 13:39 49.99786 8.52642 1028 ft 181 kts 179°
2026-04-17 13:39 49.98547 8.52698 1872 ft 176 kts 180°
2026-04-17 13:40 49.97343 8.52755 2609 ft 170 kts 179°
2026-04-17 13:40 49.96093 8.52889 2856 ft 192 kts 168°
2026-04-17 13:40 49.94882 8.53926 3091 ft 211 kts 135°
2026-04-17 13:40 49.94128 8.55978 3333 ft 230 kts 106°
2026-04-17 13:41 49.93815 8.58459 3847 ft 238 kts 96°
2026-04-17 13:41 49.93786 8.61030 4485 ft 238 kts 87°
2026-04-17 13:41 49.93924 8.63626 4871 ft 247 kts 88°
2026-04-17 13:41 49.93932 8.66378 5067 ft 261 kts 92°
2026-04-17 13:42 49.93580 8.69138 5418 ft 262 kts 116°
2026-04-17 13:42 49.92527 8.71349 5904 ft 259 kts 141°
2026-04-17 13:42 49.91053 8.72953 6365 ft 259 kts 148°
2026-04-17 13:42 49.89522 8.74486 6709 ft 267 kts 146°
2026-04-17 13:43 49.88151 8.76503 7025 ft 276 kts 129°
2026-04-17 13:43 49.87135 8.79030 7536 ft 278 kts 119°
2026-04-17 13:43 49.86211 8.81671 8073 ft 279 kts 120°
2026-04-17 13:43 49.85269 8.84314 8615 ft 280 kts 120°
2026-04-17 13:44 49.84312 8.86961 9127 ft 283 kts 120°
2026-04-17 13:44 49.83346 8.89620 9661 ft 285 kts 120°
2026-04-17 13:44 49.82366 8.92311 10189 ft 287 kts 120°
2026-04-17 13:44 49.81381 8.95012 10426 ft 299 kts 120°
2026-04-17 13:45 49.80333 8.97888 10569 ft 315 kts 120°
2026-04-17 13:45 49.79233 9.00905 10705 ft 329 kts 120°
2026-04-17 13:45 49.78083 9.04056 10935 ft 340 kts 120°
2026-04-17 13:45 49.76919 9.07267 11144 ft 344 kts 117°
2026-04-17 13:46 49.75986 9.10697 11517 ft 347 kts 108°
2026-04-17 13:46 49.75373 9.14317 11999 ft 349 kts 103°
2026-04-17 13:46 49.74806 9.17984 12435 ft 353 kts 103°
2026-04-17 13:46 49.74221 9.21680 12916 ft 355 kts 104°
2026-04-17 13:47 49.73629 9.25351 13340 ft 358 kts 104°
2026-04-17 13:47 49.73019 9.29106 13773 ft 362 kts 104°
2026-04-17 13:47 49.72401 9.32893 14186 ft 365 kts 104°
2026-04-17 13:47 49.71778 9.36704 14602 ft 367 kts 104°
2026-04-17 13:48 49.71149 9.40548 15006 ft 370 kts 104°
2026-04-17 13:48 49.70516 9.44413 15404 ft 373 kts 104°
2026-04-17 13:48 49.69877 9.48305 15806 ft 375 kts 104°
2026-04-17 13:48 49.69231 9.52227 16181 ft 379 kts 104°
2026-04-17 13:49 49.68579 9.56175 16567 ft 381 kts 104°
2026-04-17 13:49 49.67930 9.60100 16962 ft 384 kts 104°
2026-04-17 13:49 49.67345 9.64131 17305 ft 387 kts 97°
2026-04-17 13:49 49.67272 9.68272 17715 ft 387 kts 84°
2026-04-17 13:50 49.67769 9.72360 18086 ft 388 kts 72°
2026-04-17 13:50 49.68520 9.76375 18469 ft 391 kts 72°
2026-04-17 13:50 49.69255 9.80424 18819 ft 393 kts 73°
2026-04-17 13:50 49.69980 9.84505 19172 ft 395 kts 73°
2026-04-17 13:51 49.70702 9.88609 19541 ft 397 kts 73°
2026-04-17 13:51 49.71515 9.92627 19879 ft 398 kts 66°
2026-04-17 13:51 49.72698 9.96485 20246 ft 398 kts 58°
2026-04-17 13:51 49.74213 10.00041 20697 ft 395 kts 51°
2026-04-17 13:52 49.75842 10.03482 21035 ft 398 kts 51°
2026-04-17 13:52 49.77458 10.06962 21438 ft 400 kts 51°
2026-04-17 13:52 49.79081 10.10478 21780 ft 402 kts 52°
2026-04-17 13:52 49.80707 10.14009 22157 ft 404 kts 52°
2026-04-17 13:53 49.82342 10.17562 22511 ft 406 kts 52°
2026-04-17 13:53 49.83962 10.21087 22876 ft 408 kts 52°
2026-04-17 13:53 49.85613 10.24682 23247 ft 410 kts 52°
2026-04-17 13:53 49.87272 10.28300 23612 ft 413 kts 52°
2026-04-17 13:54 49.90612 10.35596 24274 ft 417 kts 52°
2026-04-17 13:54 49.92288 10.39268 24590 ft 418 kts 52°
2026-04-17 13:55 49.95663 10.46675 25221 ft 422 kts 51°
2026-04-17 13:55 49.97340 10.50365 25516 ft 424 kts 51°
2026-04-17 13:55 50.00746 10.57873 26217 ft 426 kts 51°
2026-04-17 13:56 50.04170 10.65448 26791 ft 430 kts 52°
2026-04-17 13:56 50.05576 10.69604 27060 ft 439 kts 66°
2026-04-17 13:56 50.06347 10.74224 27358 ft 446 kts 79°
2026-04-17 13:57 50.06441 10.79073 27621 ft 453 kts 93°
2026-04-17 13:57 50.05840 10.83904 27896 ft 458 kts 106°
2026-04-17 13:57 50.03531 10.93139 28436 ft 463 kts 110°
2026-04-17 13:58 50.02369 10.97812 28694 ft 465 kts 108°
2026-04-17 13:58 50.00219 11.07337 29196 ft 469 kts 106°
2026-04-17 13:58 49.99186 11.12146 29464 ft 470 kts 106°
2026-04-17 13:59 49.97135 11.21756 29968 ft 474 kts 106°
2026-04-17 13:59 49.96095 11.26625 30216 ft 476 kts 106°
2026-04-17 13:59 49.95061 11.31510 30446 ft 477 kts 106°
2026-04-17 14:00 49.94022 11.36416 30662 ft 479 kts 106°
2026-04-17 14:00 49.92977 11.41340 30874 ft 481 kts 106°
2026-04-17 14:00 49.91988 11.46312 31090 ft 483 kts 103°
2026-04-17 14:00 49.91081 11.51343 31215 ft 487 kts 102°
2026-04-17 14:01 49.90181 11.56443 31205 ft 494 kts 102°
2026-04-17 14:01 49.88352 11.66714 31192 ft 496 kts 100°
2026-04-17 14:02 49.87306 11.77238 31211 ft 494 kts 94°
2026-04-17 14:02 49.86385 11.87781 31226 ft 494 kts 94°
2026-04-17 14:03 49.85438 11.98337 31203 ft 494 kts 94°
2026-04-17 14:03 49.84493 12.08798 31203 ft 494 kts 94°
2026-04-17 14:04 49.83535 12.19350 31205 ft 494 kts 94°
2026-04-17 14:04 49.82569 12.29891 31206 ft 495 kts 94°
2026-04-17 14:05 49.81575 12.40458 31208 ft 497 kts 96°
2026-04-17 14:05 49.79566 12.50684 31210 ft 505 kts 111°
2026-04-17 14:06 49.76391 12.60409 31206 ft 506 kts 114°
2026-04-17 14:06 49.73200 12.70111 31211 ft 506 kts 114°
2026-04-17 14:07 49.70003 12.79812 31204 ft 507 kts 114°
2026-04-17 14:07 49.66819 12.89433 31208 ft 507 kts 114°
2026-04-17 14:08 49.63602 12.99112 31203 ft 507 kts 114°
2026-04-17 14:08 49.60378 13.08774 31207 ft 506 kts 114°
2026-04-17 14:09 49.57154 13.18399 31236 ft 507 kts 114°
2026-04-17 14:09 49.53925 13.27999 31232 ft 507 kts 114°
2026-04-17 14:10 49.50676 13.37627 31229 ft 507 kts 114°
2026-04-17 14:10 49.47420 13.47237 31218 ft 507 kts 114°
2026-04-17 14:11 49.44152 13.56847 31216 ft 508 kts 114°
2026-04-17 14:11 49.40893 13.66396 31205 ft 508 kts 114°
2026-04-17 14:12 49.37605 13.75993 31208 ft 508 kts 114°
2026-04-17 14:12 49.34314 13.85564 31212 ft 506 kts 114°
2026-04-17 14:13 49.29357 13.99913 31209 ft 509 kts 114°
2026-04-17 14:13 49.26060 14.09409 31209 ft 508 kts 114°
2026-04-17 14:14 49.22734 14.18957 31206 ft 508 kts 114°
2026-04-17 14:14 49.19399 14.28493 31205 ft 508 kts 114°
2026-04-17 14:15 49.16053 14.38023 31206 ft 509 kts 114°
2026-04-17 14:15 49.12723 14.47476 31203 ft 508 kts 114°
2026-04-17 14:16 49.09362 14.56984 31203 ft 509 kts 114°
2026-04-17 14:16 49.05990 14.66484 31201 ft 509 kts 114°
2026-04-17 14:17 49.02606 14.75981 31199 ft 511 kts 114°
2026-04-17 14:17 48.99242 14.85399 31201 ft 509 kts 115°
2026-04-17 14:18 48.95845 14.94864 31197 ft 510 kts 115°
2026-04-17 14:18 48.92438 15.04325 31197 ft 510 kts 115°
2026-04-17 14:19 48.89028 15.13791 31193 ft 511 kts 114°
2026-04-17 14:19 48.85821 15.23316 31190 ft 509 kts 112°
2026-04-17 14:20 48.82624 15.32939 31378 ft 512 kts 112°
2026-04-17 14:20 48.81005 15.37755 31566 ft 513 kts 113°
2026-04-17 14:20 48.79377 15.42573 31721 ft 514 kts 113°
2026-04-17 14:21 48.77741 15.47398 31869 ft 516 kts 113°
2026-04-17 14:21 48.76094 15.52244 31978 ft 517 kts 113°
2026-04-17 14:21 48.74444 15.57090 32112 ft 518 kts 113°
2026-04-17 14:21 48.72811 15.61873 32259 ft 518 kts 113°
2026-04-17 14:22 48.71154 15.66719 32413 ft 518 kts 113°
2026-04-17 14:22 48.69498 15.71553 32572 ft 517 kts 113°
2026-04-17 14:22 48.67842 15.76381 32738 ft 517 kts 113°
2026-04-17 14:22 48.66183 15.81211 32886 ft 517 kts 113°
2026-04-17 14:23 48.64523 15.86034 33008 ft 518 kts 114°
2026-04-17 14:23 48.62859 15.90859 33160 ft 517 kts 114°
2026-04-17 14:23 48.59552 16.00416 33169 ft 516 kts 114°
2026-04-17 14:24 48.56219 16.10014 33168 ft 516 kts 114°
2026-04-17 14:24 48.52877 16.19603 33162 ft 516 kts 114°
2026-04-17 14:25 48.49524 16.29189 33161 ft 517 kts 114°
2026-04-17 14:25 48.46159 16.38770 33158 ft 517 kts 114°
2026-04-17 14:26 48.42814 16.48263 33148 ft 516 kts 114°
2026-04-17 14:26 48.39438 16.57809 33190 ft 517 kts 114°
2026-04-17 14:27 48.36045 16.67365 33159 ft 518 kts 114°
2026-04-17 14:27 48.32645 16.76908 33151 ft 518 kts 114°
2026-04-17 14:28 48.29255 16.86384 33144 ft 519 kts 114°
2026-04-17 14:28 48.25857 16.95943 33108 ft 518 kts 112°